GFSNGP_925_spd_102.txt.gz
Wind_Speed
4 5 9 5 3 2 1 2 4 3 3 2 5 7 9 10 10 8 10 14 16 16 15 7 8 14 17 21 20 21 20 17 17 24 25 25 26 26 26 26 26 28 27 28
3 4 10 8 8 4 8 7 10 6 4 1 3 5 12 11 13 11 12 13 15 15 16 16 18 3 15 18 19 20 15 15 15 18 21 24 25 26 27 27 27 28 30 31
1 2 7 5 5 2 4 3 2 4 3 7 5 9 12 12 12 11 13 14 15 16 16 17 20 20 11 13 19 21 19 17 18 18 22 26 27 27 26 27 28 28 29 31
3 4 2 4 4 8 10 5 6 4 6 7 3 8 10 11 10 11 13 16 16 13 16 19 23 25 20 2 16 14 14 14 18 22 22 22 25 27 27 27 29 30 30 31
1 1 5 2 2 1 3 0 4 5 6 7 6 9 11 14 13 11 11 11 13 19 21 23 26 21 15 23 23 20 16 10 5 6 17 22 24 25 27 27 27 28 30 31
1 1 3 2 1 5 2 2 0 4 5 5 10 3 4 13 13 13 13 17 16 19 20 22 21 17 22 22 22 20 16 13 10 7 5 7 20 24 24 28 28 28 28 27
2 1 6 3 7 3 2 2 4 5 6 9 5 5 7 11 12 15 15 17 15 16 17 20 20 18 20 21 21 16 15 14 15 14 10 10 8 15 24 25 21 18 16 9
3 3 6 8 4 1 2 6 7 10 8 8 9 9 10 10 11 13 14 18 17 18 19 23 25 20 18 20 15 15 17 19 20 19 17 14 11 6 3 13 13 14 17 19
4 2 5 6 6 6 7 6 6 9 8 7 9 9 10 10 11 11 14 16 19 15 17 19 21 21 19 18 17 18 22 23 23 23 23 23 23 18 19 19 23 21 22 23
4 4 9 8 8 10 11 11 10 10 10 10 9 9 9 9 10 9 12 14 15 16 18 19 21 22 21 20 19 21 22 23 24 27 29 30 29 25 21 18 20 22 23 22
4 5 5 9 8 9 11 10 11 11 12 12 9 10 10 9 10 11 12 14 15 16 15 18 20 22 23 20 18 18 21 23 23 25 28 34 39 28 27 24 20 20 20 20
2 5 4 4 7 10 12 11 11 11 10 12 11 9 9 9 12 13 14 15 15 16 16 17 20 20 19 17 15 15 18 21 20 23 24 25 32 42 47 45 42 38 35 37
3 4 10 7 9 10 11 10 10 11 10 9 11 10 11 8 12 13 15 16 16 16 16 18 17 21 20 18 19 22 24 19 20 21 21 20 21 26 28 39 45 43 39 36
10 3 6 12 6 7 9 10 12 11 12 12 12 12 11 11 12 14 15 14 14 14 17 18 19 20 16 16 18 21 25 26 25 22 24 26 24 22 22 23 25 28 34 33
9 9 6 8 8 9 9 7 8 8 7 10 13 13 13 13 14 14 14 13 14 17 19 19 19 19 15 14 18 21 22 25 27 27 26 25 23 23 23 23 22 22 25 31
2 7 8 8 8 8 8 8 8 8 7 9 12 12 12 13 14 15 17 18 18 17 18 19 20 16 14 16 20 23 25 25 26 25 25 25 23 23 23 23 23 24 24 20
0 3 7 6 6 7 8 6 7 7 9 10 10 9 11 12 15 16 16 18 21 22 21 19 16 14 15 17 20 22 23 24 24 24 24 23 22 22 22 23 23 24 25 23
7 6 6 5 5 6 7 9 10 10 10 9 10 13 16 15 12 13 15 17 20 23 23 19 16 16 16 16 19 20 21 22 22 22 22 22 21 21 21 22 22 24 25 26
9 8 9 9 9 9 9 9 10 10 10 10 15 15 16 17 15 15 16 20 20 18 20 17 16 17 17 15 17 18 20 21 21 21 22 22 23 23 24 25 24 24 24 24
11 11 11 12 14 11 11 11 13 15 12 15 16 17 16 16 15 16 19 19 18 12 13 14 15 17 15 14 15 17 18 19 19 20 20 22 23 23 23 23 23 23 23 23
8 10 11 12 13 15 15 13 15 15 13 14 16 16 15 14 14 13 14 13 16 13 14 15 15 14 13 13 14 16 17 18 19 19 20 21 21 21 21 21 21 21 21 20
9 10 12 14 14 14 13 14 15 15 15 15 14 14 15 14 15 17 16 13 13 13 14 16 15 12 12 12 15 17 17 18 19 19 19 19 19 19 19 18 18 17 16 15
10 11 12 14 14 14 14 14 13 13 13 12 12 12 13 11 10 9 8 12 12 13 15 15 13 12 13 15 17 17 17 18 18 18 18 17 17 16 16 15 14 12 11 11
10 11 13 12 12 13 12 12 13 13 14 12 11 9 10 13 13 11 11 11 11 13 16 14 13 13 14 16 17 17 17 16 16 16 15 14 14 12 11 10 11 10 9 8
9 8 9 10 11 9 10 10 10 10 9 9 8 7 6 7 8 9 9 11 11 13 14 13 13 13 14 15 15 15 14 14 13 12 11 10 10 9 8 7 7 6 4 3
6 6 6 5 7 6 5 5 8 7 8 10 10 9 9 9 9 8 9 10 11 12 13 12 12 12 12 12 12 12 11 11 10 10 9 9 8 7 6 5 3 1 1 2
3 4 3 4 3 4 3 3 4 5 6 7 10 7 7 8 9 9 9 9 9 10 11 11 11 11 10 10 10 9 9 8 8 7 6 6 6 6 5 3 3 2 2 4

GFSNGP_925_spd_105.txt.gz
Wind_Speed
7 4 4 4 5 2 3 1 5 2 2 3 6 7 8 10 12 12 13 14 15 14 15 18 18 7 11 15 19 20 19 18 17 17 16 17 18 19 19 19 21 21 21 25
2 5 4 4 6 6 7 4 7 9 7 7 5 8 10 11 12 12 13 15 14 9 10 15 21 20 1 14 15 19 18 17 16 17 16 16 18 19 18 19 19 20 22 24
1 2 6 5 5 8 3 2 2 4 3 7 7 9 11 11 12 13 15 15 16 16 15 19 21 21 15 1 21 18 18 19 18 16 17 17 16 17 18 19 20 20 20 22
2 3 2 5 4 6 8 6 7 3 6 9 3 9 11 13 12 12 13 14 13 13 19 23 24 24 21 15 12 13 13 12 14 16 18 18 18 18 17 18 22 22 23 26
1 3 3 3 3 3 1 1 5 3 6 7 1 9 12 14 12 12 12 11 13 15 17 17 24 28 23 25 22 22 18 19 10 7 5 14 20 21 20 20 20 23 23 26
1 3 1 2 1 5 2 1 4 4 7 5 8 1 4 11 12 12 14 15 16 16 18 26 28 22 17 23 26 24 20 14 10 10 7 6 3 10 24 23 23 22 16 16
5 2 3 5 9 3 2 2 6 8 9 11 6 5 6 9 11 14 13 16 17 18 19 23 24 21 24 25 24 17 13 14 17 17 13 12 7 4 6 15 17 16 16 12
3 3 6 10 2 1 6 8 8 10 10 9 8 9 9 10 11 12 12 16 18 15 17 21 22 19 22 22 17 18 19 21 22 22 20 17 14 13 10 14 21 21 22 22
2 1 4 7 10 10 9 7 6 9 8 8 9 9 10 10 10 10 14 16 18 17 18 22 21 19 19 17 16 20 25 26 26 26 25 24 24 21 21 18 21 19 20 21
3 5 7 10 12 13 12 12 9 10 9 9 9 8 9 9 9 9 14 16 17 17 18 20 24 21 14 14 16 21 24 23 24 28 28 28 27 26 22 20 19 19 20 20
2 3 5 12 9 10 11 10 10 10 10 11 9 10 9 9 10 12 14 16 16 15 16 17 14 15 16 16 15 19 21 22 23 23 27 34 39 30 30 29 22 23 22 22
2 5 4 6 8 9 10 8 8 8 10 11 10 9 9 9 11 13 14 16 16 17 17 18 18 18 17 15 14 16 20 20 19 19 22 26 31 38 45 43 41 38 35 36
2 5 10 10 10 8 8 8 10 10 10 9 11 11 11 10 12 13 14 15 16 17 18 19 20 21 18 16 15 17 20 17 17 18 17 20 21 24 28 37 41 38 34 32
8 3 7 9 5 7 8 11 14 14 13 12 11 11 12 12 13 14 15 13 13 15 18 18 19 19 16 14 17 20 20 20 20 18 18 20 21 22 22 22 25 28 32 31
9 9 10 7 8 9 9 8 10 10 9 10 12 12 12 13 14 14 13 12 13 17 17 17 17 18 14 14 16 17 18 18 18 19 20 20 19 21 21 21 22 20 18 25
4 8 8 9 8 8 8 8 9 8 8 9 10 10 11 12 13 14 15 15 17 17 17 18 17 15 13 13 15 17 19 18 17 18 17 18 17 18 19 19 19 18 18 15
6 3 6 5 5 7 8 7 6 6 7 8 7 7 9 11 13 14 15 15 16 17 17 17 15 13 12 13 13 14 14 15 17 17 16 16 16 18 17 18 18 19 18 16
6 6 6 6 4 4 6 8 8 8 8 8 10 12 13 12 11 11 11 13 17 22 21 18 15 14 13 12 12 12 13 13 14 15 14 15 15 15 16 17 17 18 17 21
9 8 8 8 7 7 7 7 8 8 8 10 14 14 13 13 11 12 13 18 17 16 17 16 14 14 14 11 12 13 13 13 14 14 15 16 16 15 16 16 17 16 15 15
10 10 11 12 13 11 10 8 9 12 10 14 16 15 13 14 14 16 16 18 15 9 12 13 13 14 12 11 12 13 13 13 14 14 14 15 15 16 16 17 17 16 16 16
8 10 11 11 12 13 11 10 12 11 11 13 14 14 12 12 13 11 13 14 14 13 13 14 14 12 11 11 12 12 13 14 14 13 14 14 15 15 15 15 15 14 14 14
7 8 9 10 11 11 11 12 13 14 14 14 13 13 13 12 14 15 16 12 10 12 13 14 13 12 11 11 13 13 14 14 14 14 14 13 14 14 14 13 13 13 12 12
8 9 10 11 11 10 11 12 12 13 14 13 12 11 11 10 8 8 9 11 10 12 14 14 12 11 12 15 16 16 16 16 16 15 15 15 14 13 12 12 11 11 10 10
10 10 10 9 9 9 11 9 11 12 14 13 12 10 9 9 11 9 9 10 11 13 15 13 12 12 14 15 16 16 16 16 16 15 15 14 13 13 12 11 11 10 9 8
8 7 8 7 7 7 7 6 7 7 8 8 8 8 9 8 7 8 10 11 11 13 15 13 13 13 15 15 15 15 15 14 13 12 11 11 11 11 10 9 9 7 6 4
5 5 5 4 5 5 4 4 6 5 6 8 8 9 10 9 9 9 10 11 12 12 14 13 12 13 13 13 13 12 12 11 10 10 10 10 9 9 8 6 5 3 2 1
4 4 3 3 2 3 3 3 4 4 5 6 8 7 9 10 10 10 10 11 12 12 12 12 12 11 11 10 10 10 9 9 8 7 7 7 7 6 5 3 2 1 1 2

GFSNGP_925_spd_108.txt.gz
Wind_Speed
6 4 4 5 5 9 12 11 6 4 5 7 4 7 7 8 9 11 13 15 15 16 17 17 24 30 35 10 17 21 20 18 18 17 17 19 18 17 16 16 16 15 13 13
5 5 6 9 11 11 10 7 7 7 7 3 8 7 8 10 11 12 13 15 15 17 17 17 22 27 32 10 17 21 20 17 17 17 16 16 16 16 16 15 16 17 16 15
1 1 3 8 13 13 10 4 4 7 6 5 4 8 9 9 11 12 13 14 16 15 14 21 23 28 28 25 20 19 18 18 17 17 17 15 14 15 16 16 17 17 17 16
2 4 5 5 5 9 7 3 3 5 3 4 7 10 9 12 12 11 14 15 14 13 18 20 24 23 23 19 13 15 11 11 11 15 15 15 15 14 14 15 16 17 17 17
3 4 3 6 4 2 4 5 6 3 3 3 13 9 11 13 12 12 13 12 15 17 18 18 20 26 23 21 24 23 18 16 12 12 9 11 14 14 15 14 15 16 16 17
2 4 2 6 5 13 7 4 4 6 8 9 4 0 4 11 12 13 15 17 19 20 16 13 20 20 15 25 27 24 19 15 14 12 12 9 6 6 11 14 16 14 13 13
7 4 0 8 9 13 5 4 8 8 9 11 7 6 6 9 11 14 14 17 21 19 19 20 21 22 21 24 27 24 23 18 17 16 18 14 10 5 2 10 15 18 16 12
3 3 3 15 1 5 5 8 8 10 9 8 9 8 9 10 10 11 13 17 20 19 21 22 25 24 22 28 28 25 12 19 23 23 18 17 17 14 13 17 22 23 24 22
4 4 6 8 9 9 7 8 8 10 7 7 8 8 8 8 9 10 14 16 17 18 20 25 26 26 26 27 27 24 22 27 27 26 25 22 21 21 21 21 22 19 20 20
4 6 7 8 10 11 10 10 9 9 8 8 8 7 8 8 8 8 14 15 16 17 18 19 20 21 19 19 20 18 21 24 28 31 30 28 27 25 23 21 20 20 19 19
2 5 4 9 8 8 9 9 9 11 10 8 7 8 7 8 9 10 12 13 15 15 16 17 19 20 21 19 14 15 16 19 22 24 29 34 35 28 29 28 22 21 19 19
3 6 4 5 7 8 10 10 10 8 7 9 8 7 7 7 9 10 12 13 15 16 16 17 19 20 20 16 13 12 14 17 19 21 24 26 29 37 42 40 38 34 31 30
2 7 12 8 8 8 9 8 9 7 7 7 9 8 8 7 9 10 11 13 14 14 13 14 16 17 15 13 13 15 13 14 16 17 19 20 23 25 28 34 37 37 34 32
6 3 6 7 4 6 7 7 5 8 8 9 8 8 8 8 8 10 12 12 12 12 13 13 14 15 13 14 14 16 15 16 17 18 18 18 19 20 20 21 23 26 29 28
8 10 10 8 7 5 3 3 4 5 6 7 8 9 9 9 11 11 11 10 12 15 17 17 17 17 14 14 15 14 15 16 16 17 17 18 18 19 19 19 19 18 17 21
3 6 7 7 5 4 4 5 4 5 5 6 7 8 8 9 10 11 13 14 14 16 16 16 17 15 14 12 13 15 17 16 15 16 16 16 16 17 17 17 17 16 16 15
3 2 4 4 4 5 6 5 5 5 4 5 5 6 7 8 10 12 13 14 14 15 15 15 14 12 12 12 12 12 14 15 14 16 15 15 16 16 15 16 16 17 17 16
7 6 5 4 4 4 5 7 6 7 7 7 8 9 11 11 10 10 10 10 11 16 18 16 15 13 13 13 12 12 12 13 15 15 14 15 16 15 15 15 16 17 17 18
8 7 8 9 8 7 7 7 8 9 8 8 10 12 11 10 9 10 9 12 14 14 17 15 14 14 14 14 12 12 13 14 14 15 15 15 15 14 14 15 15 15 14 14
10 11 11 11 12 10 9 8 9 10 10 9 10 10 10 10 9 9 11 16 14 10 11 13 12 13 13 13 13 13 13 13 13 14 14 13 14 14 15 15 15 14 14 14
9 10 11 11 11 10 10 8 9 10 10 10 10 9 9 9 9 6 7 10 12 11 11 13 13 12 11 11 12 12 12 12 13 13 13 13 13 13 13 13 13 12 12 12
8 9 9 10 10 11 9 9 10 10 10 10 9 7 6 7 8 11 12 10 9 11 10 11 11 12 10 11 11 12 12 12 12 12 12 11 11 11 11 11 11 11 10 10
9 9 9 8 9 9 9 9 9 9 9 8 7 7 8 8 7 6 7 10 9 10 10 11 11 12 12 12 12 12 12 12 12 11 11 11 11 10 10 10 9 9 8 8
9 8 8 8 7 7 9 8 8 8 8 8 7 6 5 6 8 8 8 9 11 11 12 11 11 12 12 11 11 11 11 11 11 10 10 10 9 9 9 8 8 7 7 7
7 6 6 6 6 7 6 5 5 5 5 6 6 8 8 7 5 6 6 7 9 9 10 11 11 13 11 11 11 10 10 9 8 8 8 8 8 8 7 7 6 5 5 4
6 5 5 4 5 4 4 3 4 4 4 5 5 5 5 6 6 6 7 7 8 8 8 8 9 10 9 9 9 9 9 8 8 8 7 7 7 6 6 5 4 3 2 2
5 3 3 2 2 2 2 2 2 3 3 3 5 5 5 6 6 6 6 6 7 7 7 7 8 8 7 7 7 7 7 6 6 6 6 5 5 4 4 3 2 1 0 0

GFSNGP_925_spd_111.txt.gz
Wind_Speed
3 8 4 4 10 10 12 12 9 5 14 16 5 14 13 10 7 8 11 12 13 14 15 18 23 25 27 24 25 11 18 19 19 22 18 19 19 20 20 18 17 15 14 13
9 8 6 6 7 8 11 10 11 12 9 15 11 13 11 9 9 10 11 12 13 14 16 17 24 26 27 25 26 26 18 18 21 22 20 20 19 18 20 18 18 17 15 14
3 3 3 7 11 11 11 11 8 12 6 4 10 11 9 8 9 10 11 13 14 15 15 21 24 26 25 25 35 20 18 19 21 19 17 17 18 18 18 19 18 17 16 14
5 2 5 4 8 7 10 8 7 2 7 8 12 11 9 8 9 10 11 13 13 13 19 23 25 24 24 30 33 10 10 10 15 19 17 16 15 17 16 16 18 18 16 15
4 5 7 8 8 8 10 4 9 6 7 7 13 10 9 9 10 11 12 12 14 18 20 22 24 24 24 30 28 20 18 15 13 13 14 16 15 15 15 15 14 15 15 14
5 5 2 7 10 12 17 3 7 6 8 8 7 3 3 10 10 11 13 15 16 18 20 22 28 27 24 27 26 21 18 16 18 16 15 13 10 11 10 12 12 15 13 11
8 6 5 14 11 7 5 4 7 8 9 9 5 5 5 8 10 12 14 16 16 15 18 22 27 27 22 24 25 24 15 30 29 23 20 12 11 9 10 17 20 19 18 14
4 5 2 19 5 5 1 6 7 10 9 8 7 6 6 8 10 12 14 17 17 15 17 23 25 24 18 22 22 17 16 34 29 34 23 21 23 20 18 21 27 22 21 21
6 4 7 10 9 9 8 7 8 9 8 6 6 7 7 8 11 12 15 16 16 16 17 19 22 21 19 22 22 23 36 34 32 29 27 25 30 24 25 25 23 19 20 20
6 6 6 8 9 9 9 9 10 10 9 7 7 6 8 8 9 10 15 16 16 16 17 19 21 21 21 20 19 23 30 33 30 33 35 31 33 31 26 21 20 18 19 19
3 4 1 7 9 9 7 8 9 10 10 9 7 8 9 9 9 11 13 15 16 16 17 19 20 21 22 24 19 24 25 21 22 26 34 36 40 32 31 30 22 21 21 20
3 6 3 6 7 8 9 10 10 9 8 10 10 10 9 9 12 13 14 15 16 18 18 18 18 20 22 21 22 21 21 20 23 26 28 29 30 36 43 40 38 35 32 32
2 5 9 7 7 9 9 9 10 10 10 9 11 10 9 9 11 12 14 16 16 16 17 18 19 21 22 21 23 24 20 18 19 22 22 22 21 24 25 33 36 36 34 32
5 1 4 7 5 6 6 6 6 7 10 12 10 10 10 10 12 13 14 14 15 16 17 18 18 20 20 19 19 20 20 19 19 19 19 20 20 20 19 20 22 26 29 28
6 8 8 6 5 6 7 4 4 7 8 9 10 10 10 11 12 13 14 13 13 16 18 18 19 19 17 17 17 17 16 16 17 19 19 19 18 17 17 18 19 18 17 21
1 5 5 5 5 5 6 8 6 6 6 7 9 9 10 10 12 12 14 15 16 17 18 18 18 17 16 15 14 15 16 16 15 16 16 16 16 16 17 17 17 17 17 14
4 1 3 3 3 4 6 6 7 6 7 9 9 10 8 9 12 13 14 14 15 17 17 18 18 15 15 14 12 12 12 14 14 15 15 15 16 17 16 17 17 18 18 18
6 5 6 5 5 4 5 7 8 9 9 9 9 11 12 12 11 11 11 10 10 16 18 17 15 15 15 15 13 12 11 12 14 14 14 15 16 15 16 17 17 17 16 16
9 7 8 9 8 7 8 8 9 9 9 9 10 12 11 11 10 10 10 11 12 13 16 15 15 14 15 16 13 12 12 13 13 13 14 14 15 15 15 15 15 14 14 14
9 10 11 11 11 9 9 9 8 9 8 8 8 10 10 10 9 7 9 14 13 12 11 13 11 12 12 13 12 11 12 13 13 13 13 14 14 15 15 15 14 14 14 14
9 9 10 10 11 11 10 8 8 9 9 10 10 10 9 9 10 14 10 12 14 14 12 13 14 12 11 10 11 12 12 12 13 13 13 13 13 13 13 13 13 12 12 12
8 9 9 9 10 11 10 9 9 9 9 9 8 6 2 6 6 11 13 13 11 14 12 13 13 14 12 11 12 12 11 12 12 12 12 11 11 11 12 11 11 10 10 10
9 9 9 9 9 9 9 9 9 9 9 9 9 10 9 9 10 9 9 12 11 12 11 13 13 13 12 12 12 12 12 12 12 11 11 11 11 11 10 10 9 9 9 9
9 9 9 7 4 6 8 7 7 7 7 8 8 8 9 6 7 9 8 9 11 12 13 12 13 13 11 11 11 11 11 11 11 10 10 10 10 9 9 8 8 8 8 8
8 7 6 4 5 6 5 4 4 4 4 6 6 7 8 8 8 7 7 8 9 8 8 12 12 12 11 10 10 10 9 9 9 8 8 8 8 8 7 7 7 6 6 5
4 5 5 6 5 4 4 3 4 3 3 3 5 5 5 6 5 6 6 6 7 8 8 8 9 9 9 9 9 9 8 8 8 8 7 7 6 6 6 5 5 4 4 3
4 2 3 2 2 2 3 3 3 3 3 3 3 3 4 4 4 5 4 5 6 6 6 6 7 8 7 7 7 7 6 6 6 5 5 5 5 4 4 3 3 2 2 1

GFSNGP_925_spd_114.txt.gz
Wind_Speed
14 11 6 8 9 7 15 12 8 13 4 10 12 15 11 12 13 13 14 14 14 14 14 19 21 24 27 29 31 29 31 26 19 22 23 22 29 25 25 21 23 20 20 20
16 10 13 4 7 10 15 9 10 5 1 13 11 12 12 13 13 11 12 13 14 15 16 18 23 25 28 29 29 30 30 23 18 20 21 22 27 24 27 23 23 20 19 20
4 13 10 3 7 5 7 5 3 6 8 10 15 14 11 9 10 12 12 12 12 13 14 19 21 25 26 28 27 27 25 15 20 21 19 18 25 25 22 23 22 21 19 19
6 7 1 11 21 17 14 19 17 14 14 15 15 13 11 12 13 11 11 11 11 12 17 19 22 25 27 25 22 24 27 25 5 19 19 19 23 22 23 24 21 21 21 18
4 7 4 20 16 9 9 10 17 10 11 11 13 13 12 11 11 9 10 10 12 14 15 18 21 25 25 24 23 25 28 26 24 13 16 19 21 22 22 22 21 16 15 15
8 5 3 10 17 10 8 3 15 12 12 6 5 2 5 10 10 10 12 12 12 12 14 20 26 26 24 27 28 27 29 25 22 18 11 17 19 22 20 21 23 22 20 18
7 5 5 16 18 14 3 5 8 13 12 14 8 6 6 8 10 13 12 13 14 13 15 21 26 26 24 27 28 28 28 27 25 23 20 14 18 22 28 28 27 26 26 21
6 4 1 21 7 6 2 5 8 7 10 10 8 8 8 9 9 10 13 16 17 16 18 22 26 26 25 25 28 27 29 28 31 31 28 24 24 24 28 31 30 26 28 27
4 3 5 8 9 10 10 7 10 9 9 9 8 8 9 8 9 11 14 15 17 16 16 20 25 27 25 23 25 24 26 31 36 31 28 33 29 32 26 24 24 21 23 23
4 5 6 8 8 10 12 11 11 11 10 8 8 8 8 8 9 8 12 15 17 16 16 19 23 26 26 25 20 21 25 30 33 32 34 36 34 40 30 20 24 21 22 21
4 4 2 10 8 9 10 11 10 10 11 11 10 9 9 10 11 14 13 14 17 18 18 20 21 23 25 24 20 21 22 25 27 24 31 38 40 33 32 33 26 25 24 23
2 6 4 5 7 9 9 10 11 10 8 10 11 10 11 10 13 14 15 17 18 19 19 20 21 22 25 25 24 20 21 22 22 22 25 26 30 38 44 42 44 42 36 35
2 2 7 6 7 7 8 8 9 10 11 9 12 12 13 12 14 15 16 17 17 18 19 20 21 23 26 23 23 25 20 19 20 22 20 19 20 24 26 36 43 42 40 39
4 2 5 10 5 6 5 3 5 8 10 12 12 13 14 14 15 16 18 16 17 18 20 20 21 24 23 22 20 21 22 22 20 20 18 18 20 25 25 26 27 29 34 35
6 7 6 5 7 8 10 11 5 8 8 10 12 13 14 13 15 16 16 16 16 18 21 20 21 25 24 20 22 21 17 18 17 19 20 21 23 25 24 23 21 20 21 26
3 5 5 7 7 8 9 10 9 8 9 12 14 14 12 13 14 14 15 16 17 18 19 21 22 22 22 18 16 17 19 19 19 18 19 21 23 23 23 22 22 23 22 20
0 3 6 6 6 7 7 8 10 10 12 13 12 12 12 11 13 13 13 14 18 18 19 22 20 19 20 18 16 15 16 18 19 19 20 20 20 21 20 21 21 23 24 25
9 10 10 9 7 7 8 12 12 13 12 11 10 12 14 13 11 12 14 15 15 18 22 20 19 18 18 18 16 15 16 17 19 18 18 20 20 19 20 20 20 21 21 22
12 11 13 14 13 13 12 11 12 10 11 10 9 10 10 10 9 10 14 17 16 16 20 19 17 18 18 17 16 15 16 16 17 18 18 18 18 18 19 20 20 19 19 19
11 11 12 12 15 13 11 10 10 11 12 9 10 10 10 11 10 7 16 17 15 15 15 16 17 16 15 16 15 15 15 16 17 17 16 16 18 20 21 19 18 18 18 17
10 10 10 10 11 10 10 9 10 10 10 11 9 7 7 8 11 14 14 13 15 14 13 15 17 17 15 13 14 15 15 15 15 14 14 14 15 16 16 16 16 16 16 16
9 9 8 8 9 10 9 9 9 8 8 7 9 13 6 7 10 17 16 14 12 14 13 13 14 17 15 14 16 17 17 16 16 15 14 14 14 15 15 15 15 15 14 14
9 8 8 8 8 9 8 8 9 8 8 8 9 11 7 9 12 11 10 12 11 13 12 13 15 15 13 14 14 15 16 16 16 15 15 15 15 14 14 13 13 13 13 13
9 8 6 4 3 6 7 5 6 4 5 8 12 12 11 8 11 10 9 8 8 14 15 14 15 15 14 13 14 15 15 13 12 12 12 12 11 11 11 10 10 9 10 9
7 6 5 4 5 5 4 1 4 4 5 7 7 8 9 9 10 8 9 9 11 10 11 12 12 12 13 13 12 12 10 13 12 10 10 9 10 10 9 10 11 9 8 8
6 4 5 7 6 4 4 4 4 5 5 5 7 7 7 8 6 5 7 7 8 8 9 10 11 11 11 11 11 10 10 9 9 9 9 8 8 8 8 8 7 6 5 4
4 2 3 3 3 4 5 5 7 7 7 7 5 6 5 4 5 5 6 7 7 7 8 7 8 9 9 9 9 9 9 8 7 8 6 6 6 5 5 5 5 3 3 2

GFSNGP_925_spd_117.txt.gz
Wind_Speed
13 13 9 13 10 12 9 8 2 5 13 13 11 13 13 11 11 13 13 13 13 13 13 19 22 24 27 29 31 32 31 30 31 32 26 26 22 20 28 35 32 26 23 23
6 11 9 6 8 9 8 12 11 11 10 16 12 11 13 15 13 14 15 16 16 15 15 17 19 23 27 29 30 32 33 31 32 29 25 24 22 21 27 29 31 26 23 24
4 16 6 6 15 9 11 18 4 4 9 12 12 13 13 12 13 15 13 13 13 13 14 19 22 24 26 29 30 29 30 30 29 34 22 21 24 27 24 29 29 26 23 22
4 8 3 6 17 15 17 19 19 15 10 13 12 12 12 10 9 10 10 12 11 13 17 20 22 26 27 27 27 28 28 28 28 30 22 20 24 27 25 29 29 27 24 23
2 4 3 13 18 14 13 10 16 15 7 15 14 15 13 11 11 10 9 10 11 13 17 20 23 27 26 27 27 27 29 29 28 28 24 11 18 23 24 28 25 23 23 25
3 3 4 6 20 18 10 6 12 12 13 7 8 3 4 10 11 9 12 13 15 15 17 19 25 26 24 24 25 27 30 31 27 24 23 16 11 24 19 25 29 28 27 24
3 2 5 13 17 14 4 4 8 9 8 12 9 6 6 10 11 14 14 17 17 16 16 19 22 23 20 21 24 26 29 32 30 25 24 22 13 21 29 31 33 31 31 22
3 4 3 17 8 7 6 7 8 9 7 9 9 9 9 10 11 13 16 18 18 16 16 20 23 21 19 21 25 26 33 34 34 30 29 26 27 24 24 30 33 28 30 26
4 2 3 6 6 7 10 9 11 9 8 8 7 9 9 8 10 12 14 16 16 15 15 19 23 22 19 21 26 27 30 32 33 34 33 31 31 29 26 25 22 21 21 21
3 6 7 9 7 9 10 11 10 11 14 9 9 9 10 9 9 10 12 14 15 15 17 18 22 22 22 25 25 26 28 28 30 32 37 36 37 31 30 25 25 22 20 21
3 5 5 9 7 7 9 11 11 10 10 12 10 11 10 9 10 13 13 13 15 15 16 19 21 23 26 26 23 22 23 24 26 28 30 36 43 34 33 31 29 28 24 19
1 1 4 3 4 6 7 8 10 11 9 10 10 9 13 9 13 13 14 13 14 16 17 20 21 24 25 23 23 21 21 22 22 22 25 26 31 39 49 45 41 37 32 33
2 2 6 6 4 4 4 4 8 9 12 10 14 14 15 13 15 16 14 14 14 15 17 20 23 25 23 21 21 23 21 20 21 24 23 22 23 26 27 38 43 40 39 36
3 1 5 7 3 5 5 3 9 11 14 12 11 12 14 13 14 15 15 14 15 16 18 19 21 25 20 20 21 22 23 24 22 21 21 23 22 23 23 21 24 28 36 35
6 6 5 6 7 8 11 11 10 9 12 13 14 12 13 12 12 13 14 14 15 17 19 20 22 23 20 17 19 21 21 20 21 21 23 22 23 25 26 23 20 21 24 27
6 7 6 6 7 8 9 10 10 10 10 11 12 12 11 13 11 10 14 16 16 17 19 20 21 20 18 16 17 19 20 20 21 20 20 21 22 22 22 22 22 20 20 19
6 8 6 7 5 7 10 11 12 10 11 11 11 10 11 10 11 14 13 17 18 20 21 20 20 19 17 16 15 16 18 19 20 20 20 20 20 20 19 19 20 22 23 22
14 14 14 12 9 9 10 13 12 12 11 10 10 12 14 13 11 13 15 15 17 21 23 21 20 20 18 17 17 17 18 19 20 20 20 20 18 18 18 19 19 20 22 22
15 13 14 14 14 14 12 12 12 10 10 10 11 12 12 13 12 12 15 20 20 16 22 18 18 18 19 17 16 16 17 18 19 20 21 22 21 21 21 21 21 21 21 22
13 13 13 14 16 15 14 13 12 14 14 13 12 12 14 15 11 14 17 21 19 16 14 15 17 19 17 17 16 17 18 19 20 20 21 22 22 22 21 21 20 20 21 21
11 12 12 13 14 14 14 12 12 14 13 13 13 8 11 15 15 16 15 14 18 14 12 15 19 18 16 15 17 17 18 19 18 18 19 20 20 21 21 21 20 19 19 18
10 9 10 11 12 12 11 10 10 11 12 12 14 17 9 10 13 17 16 13 13 12 13 18 18 16 15 16 16 17 18 19 19 18 19 19 19 19 19 18 18 17 16 15
11 10 10 10 10 9 9 8 8 9 10 11 14 15 10 14 12 13 10 12 14 11 13 17 15 14 13 15 16 18 18 17 17 17 18 18 17 17 17 17 16 16 15 14
12 8 7 6 6 6 5 3 3 5 9 12 13 13 13 11 14 10 10 9 7 13 12 14 14 14 13 13 14 16 17 17 16 15 15 14 14 13 12 12 12 11 11 10
9 6 4 6 9 7 5 5 6 5 6 9 8 9 8 9 10 6 6 9 10 10 11 11 12 12 13 15 16 14 15 14 13 12 12 12 12 11 11 10 10 10 9 6
8 7 6 9 9 6 7 6 8 8 9 10 7 6 6 6 8 6 8 7 8 8 10 9 10 11 12 12 11 10 9 10 11 10 9 9 9 9 9 8 6 5 4 4
9 7 7 6 7 6 6 9 12 9 7 6 10 6 6 6 6 6 6 7 7 8 7 10 10 9 10 10 11 11 10 9 8 7 7 7 6 5 6 4 3 3 3 2

GFSNGP_925_spd_120.txt.gz
Wind_Speed
15 9 5 5 12 12 9 10 3 9 4 8 10 13 14 13 13 14 13 12 14 13 11 17 21 21 22 22 23 25 23 23 25 29 29 30 28 24 25 25 28 35 34 31
6 4 6 11 11 15 11 13 13 16 9 11 13 13 14 12 10 12 13 13 13 14 15 18 20 21 23 24 26 26 24 23 24 26 28 29 29 25 24 24 28 32 35 33
4 13 7 8 15 17 12 22 7 5 6 10 14 16 14 12 13 12 12 12 13 13 14 17 18 20 22 23 24 25 25 26 26 27 28 30 30 24 22 24 28 29 28 34
4 8 3 5 16 8 19 18 18 14 10 10 13 13 12 12 12 12 13 13 12 13 16 18 21 21 22 22 24 26 26 28 30 30 30 30 29 27 23 25 27 30 31 32
2 3 3 8 14 9 6 10 13 11 7 6 9 10 12 13 12 12 11 12 13 14 15 17 21 24 23 24 26 28 31 32 33 32 31 29 28 29 24 24 24 25 29 31
3 2 5 4 19 15 6 7 11 11 10 5 7 3 3 9 10 10 13 15 14 15 16 19 24 23 22 24 25 27 30 31 31 30 30 26 26 26 21 23 28 30 28 27
3 2 2 12 18 13 3 4 7 7 7 10 6 5 5 7 10 14 14 17 18 18 18 20 21 21 22 23 25 27 28 29 30 32 30 26 20 20 5 28 31 30 31 25
4 4 4 19 7 6 3 9 10 7 5 8 8 8 7 8 9 12 14 16 18 16 15 18 24 23 22 23 27 27 27 28 32 34 36 31 21 23 19 14 30 23 27 26
4 2 4 5 5 7 7 6 9 10 11 7 8 7 7 7 9 12 13 14 15 14 15 20 23 24 21 24 25 26 26 28 32 32 39 36 27 26 26 21 20 18 24 18
4 4 5 6 5 8 8 9 8 7 10 8 8 8 8 7 8 11 14 15 18 17 19 21 24 22 20 23 22 22 22 27 28 30 34 40 30 28 28 25 22 19 18 20
3 5 5 5 5 6 5 7 9 9 10 8 8 9 8 8 9 12 13 17 19 18 18 21 23 21 22 23 22 19 21 22 23 26 29 28 39 36 35 37 28 22 20 26
2 1 2 2 3 4 4 6 7 9 10 14 11 10 12 8 12 12 14 16 17 19 20 22 22 22 21 21 21 19 18 20 23 23 24 25 23 32 47 44 48 45 38 36
2 3 4 4 3 4 1 4 8 9 10 8 12 13 13 11 12 14 15 16 17 17 20 20 21 21 22 20 19 20 20 20 18 20 21 22 24 22 21 34 44 43 39 37
4 3 3 5 3 8 9 8 12 13 13 11 10 12 11 11 12 13 14 14 14 17 19 20 21 21 19 18 17 18 18 20 19 21 23 23 24 22 21 21 24 27 38 36
5 5 5 7 7 8 12 10 10 9 10 10 10 11 11 11 13 13 14 13 13 16 19 21 22 21 17 15 17 17 16 17 18 19 20 22 23 24 23 22 22 22 24 29
6 7 6 6 5 7 9 9 9 8 9 9 10 10 11 11 11 12 15 16 15 16 20 21 22 19 16 14 13 15 16 15 15 16 18 20 22 21 21 21 22 22 23 21
7 6 6 6 8 8 9 9 9 8 9 10 10 10 10 10 11 12 12 13 16 19 20 21 22 18 15 13 12 13 14 15 16 17 18 18 19 19 19 20 21 21 23 21
13 11 11 9 7 7 8 9 9 9 10 9 10 13 15 14 10 10 12 12 16 19 21 20 19 17 15 13 11 12 13 14 16 17 17 18 17 17 17 18 18 19 20 21
12 11 11 11 9 10 9 9 8 9 10 10 12 12 11 9 11 13 14 18 18 18 21 17 15 17 16 13 12 11 12 13 14 16 16 16 17 17 17 17 18 19 18 19
12 12 13 14 14 14 12 10 11 13 12 11 13 14 15 12 10 12 14 17 16 14 13 15 15 15 14 13 12 13 13 15 15 15 16 16 17 17 17 17 18 19 19 20
12 14 14 14 14 13 11 11 11 12 13 13 9 13 15 14 13 13 14 11 16 14 14 16 17 15 14 12 11 12 12 13 14 14 15 16 17 17 17 17 17 17 17 17
12 12 13 13 13 11 9 8 8 9 11 13 13 7 7 8 11 14 16 13 12 13 16 17 17 14 13 12 12 12 12 12 13 13 14 14 15 15 15 16 16 16 16 15
13 12 11 10 11 10 9 10 11 12 13 14 13 11 13 12 12 12 11 12 14 13 14 16 14 13 13 12 13 14 14 14 13 12 12 12 11 11 12 12 13 13 13 13
13 11 10 8 8 6 6 6 6 9 10 10 11 9 5 7 9 10 10 6 12 11 11 12 13 14 11 11 12 12 13 13 12 12 12 11 10 11 10 9 10 10 10 10
11 9 6 7 8 8 5 5 5 5 4 6 5 6 6 7 8 6 7 8 8 11 10 9 11 11 11 12 11 10 10 10 10 9 10 10 10 9 9 8 7 8 8 7
12 10 7 10 7 4 3 7 4 6 11 8 5 4 5 5 4 4 4 5 6 8 11 8 8 9 10 11 11 9 9 9 8 8 8 7 6 6 7 7 6 5 4 4
11 8 9 8 10 6 5 12 10 9 7 9 7 5 3 3 3 3 2 3 5 5 7 7 7 8 8 8 8 7 7 7 7 6 6 6 5 4 4 4 4 4 4 3

GFSNGP_925_spd_123.txt.gz
Wind_Speed
11 11 10 12 8 11 12 12 2 7 8 10 9 11 11 10 13 20 15 20 19 17 16 21 25 23 22 19 26 25 26 26 26 28 29 29 28 27 27 25 23 24 28 29
4 7 8 17 20 16 11 12 9 10 9 7 11 13 18 17 16 15 15 15 15 14 14 15 19 20 22 25 26 24 22 21 23 25 27 27 27 27 27 24 24 24 25 28
4 7 5 4 14 13 8 18 8 8 5 5 13 16 14 11 12 12 12 11 11 12 13 16 18 19 20 21 22 21 22 24 25 26 27 28 28 26 25 25 23 25 26 28
4 5 4 3 10 7 10 14 14 9 6 7 12 11 11 10 11 12 12 11 11 11 15 18 20 22 23 21 21 21 21 24 26 28 28 29 27 25 27 26 25 24 24 29
1 3 3 3 8 8 6 8 14 13 10 3 4 2 11 12 12 11 11 12 13 16 17 19 22 21 20 20 21 23 26 27 29 29 30 28 27 28 27 28 27 25 25 30
3 3 2 2 19 15 7 5 12 11 12 12 12 4 5 12 11 11 15 16 16 18 16 19 23 23 20 21 23 26 28 29 29 30 29 27 28 28 27 23 19 21 19 23
3 1 2 12 17 11 2 4 10 8 7 9 7 5 5 9 12 17 16 16 17 15 15 17 19 19 19 22 26 27 29 29 30 31 31 29 28 25 22 15 8 15 22 17
3 3 2 15 7 5 4 5 8 9 7 6 6 6 7 9 11 15 17 20 21 18 18 19 21 21 21 23 26 25 25 29 30 32 32 30 29 28 23 20 21 16 12 21
3 1 4 5 5 5 8 5 5 8 11 5 6 7 8 8 9 13 16 18 21 20 19 22 25 25 23 24 23 27 27 29 30 30 33 33 34 32 24 25 25 23 16 16
2 2 3 5 4 7 7 7 6 7 8 8 8 8 8 7 7 11 15 17 21 20 18 20 22 21 22 22 22 24 26 27 28 27 28 35 37 34 33 27 24 25 21 16
1 2 2 4 6 6 6 6 7 10 11 8 8 8 7 7 8 10 12 16 17 17 16 18 21 21 21 22 21 21 22 26 27 25 27 26 31 39 35 41 38 28 25 24
3 2 2 3 3 4 4 6 6 7 8 12 10 7 8 6 8 9 11 14 15 16 17 20 23 20 25 24 20 20 19 20 22 22 24 25 25 25 38 42 42 42 38 30
2 3 4 4 4 9 2 4 8 9 10 8 10 9 9 7 9 10 12 14 16 17 19 23 25 26 26 25 20 19 18 19 20 21 22 22 23 22 20 27 35 38 37 33
3 3 4 6 4 7 5 13 12 12 12 10 9 9 9 9 10 12 13 13 14 18 21 23 24 26 25 22 20 19 17 18 19 19 20 21 22 22 21 21 21 25 30 33
5 5 5 8 8 9 12 10 8 8 9 10 8 9 8 7 9 11 13 14 14 18 24 26 26 26 23 20 18 18 18 17 16 17 18 19 21 22 21 21 20 20 23 27
8 7 6 9 7 6 7 7 7 7 9 9 9 9 8 8 9 11 13 16 17 18 23 26 26 24 22 19 17 17 18 17 15 16 18 19 20 20 20 20 21 23 25 25
7 5 6 6 6 7 8 8 8 8 9 9 9 8 8 8 10 12 14 16 17 20 22 24 24 21 20 19 17 16 15 16 16 17 19 18 18 18 17 18 18 20 23 24
11 9 8 7 6 5 6 8 9 9 9 7 7 10 13 14 11 13 15 16 17 19 23 22 21 19 19 18 16 15 14 15 16 17 17 19 19 20 20 20 20 20 21 25
9 10 10 10 8 8 8 8 8 8 9 8 9 9 11 13 13 13 15 20 22 21 23 20 18 18 17 16 16 15 14 14 15 16 16 16 18 19 19 20 20 21 21 23
11 11 11 13 12 12 11 11 11 11 9 11 11 12 11 11 10 12 13 18 18 16 16 18 17 18 16 14 13 14 14 14 14 15 16 17 17 18 18 18 19 20 20 20
12 13 13 14 13 12 11 9 10 12 9 9 12 13 13 12 13 14 16 14 18 16 16 16 17 17 15 13 12 12 12 12 13 14 14 14 15 17 17 17 18 17 17 17
13 13 13 12 11 10 9 8 8 9 9 9 7 6 6 7 7 12 15 13 14 14 15 16 16 15 14 13 13 12 11 11 12 12 12 12 13 13 13 14 14 14 14 14
13 13 12 11 10 9 8 9 9 9 10 8 6 6 7 8 10 11 9 14 13 13 14 15 15 14 13 13 13 13 13 12 12 12 11 10 10 10 10 11 11 11 11 11
15 13 13 11 10 9 9 9 10 8 7 7 5 3 4 3 6 7 7 7 12 11 12 14 14 14 15 13 13 12 12 12 12 11 10 10 10 9 9 8 8 8 9 9
16 13 11 10 9 8 7 8 7 6 4 2 2 3 4 5 6 5 7 7 9 12 11 11 12 13 15 14 12 12 11 11 10 10 10 9 8 8 8 8 8 7 7 6
15 14 11 10 9 7 6 10 9 9 8 7 3 2 3 2 2 3 4 5 6 8 9 10 11 12 12 12 12 11 11 10 10 10 9 9 7 6 6 6 5 4 4 5
14 11 8 9 10 9 6 7 8 7 10 9 4 3 0 1 1 2 3 4 5 5 6 7 9 10 9 9 9 9 9 8 8 8 8 8 7 5 5 5 5 5 4 3